Weather History for Lumberton, NC

Change the Weather History Date:

Monday, December 23, 2013

  Actual Average Record
Temperature  
Mean Temperature 65 °F 45 °F  
Max Temperature 77 °F 55 °F 77 °F (2013)
Min Temperature 52 °F 35 °F 20 °F (2005)
Degree Days  
Heating Degree Days 0 20  
Month to date heating degree days 318 416  
Since 1 July heating degree days 834 882  
Cooling Degree Days 0 0  
Month to date cooling degree days 15 0  
Year to date cooling degree days 1876 1907  
Growing Degree Days 14 (Base 50)    
Moisture  
Dew Point 63 °F    
Average Humidity 81    
Maximum Humidity 93    
Minimum Humidity 69    
Precipitation  
Precipitation 0.55 in 0.10 in 0.55 in (2013)
Month to date precipitation 3.28 2.31  
Year to date precipitation 43.48 42.94  
Sea Level Pressure  
Sea Level Pressure 30.07 in    
Wind  
Wind Speed 9 mph (WSW)    
Max Wind Speed 22 mph    
Max Gust Speed 28 mph    
Visibility 7 miles    
Events Rain    
T = Trace of Precipitation, MM = Missing Value Source: NWS Daily Summary

Daily Weather History Graph

Daily Weather History Graph

Search for Another Location

Airport:

Trip Planner

Search our weather history database for the weather conditions in past years. The results will help you decide how hot, cold, wet, or windy it might be!

Date:

Astronomy

Dec. 23, 2013 Rise Set
Actual Time 7:20 AM EST 5:10 PM EST
Civil Twilight 6:52 AM EST 5:38 PM EST
Nautical Twilight 6:20 AM EST 6:10 PM EST
Astronomical Twilight 5:50 AM EST 6:40 PM EST
Moon 11:04 PM EST (12/23) 10:57 AM EST (12/23)
Length of Visible Light 10h 46m
Length of Day
9h 50m
Waning Gibbous, 68% of the Moon is Illuminated
Dec 23
Waning Gibbous
Dec 25
Last Quarter
Jan 1
New
Jan 7
First Quarter
Jan 15
Full

Hourly Weather History & Observations

Time (EST) Temp. Dew Point Humidity Pressure Visibility Wind Dir Wind Speed Gust Speed Precip Events Conditions
12:54 AM 71.1 °F 66.9 °F 87% 30.09 in 10.0 mi SSW 9.2 mph - N/A   Overcast
1:37 AM 71.1 °F 66.9 °F 87% 30.09 in 10.0 mi South 6.9 mph - N/A   Overcast
1:47 AM 71.1 °F 66.9 °F 87% 30.09 in 10.0 mi SSW 10.4 mph - N/A   Overcast
1:54 AM 71.1 °F 66.9 °F 87% 30.09 in 10.0 mi South 10.4 mph - N/A   Overcast
2:54 AM 72.0 °F 68.0 °F 87% 30.06 in 10.0 mi SSW 9.2 mph 20.7 mph N/A   Overcast
3:54 AM 73.0 °F 68.0 °F 84% 30.05 in 10.0 mi South 11.5 mph - N/A   Overcast
4:08 AM 73.0 °F 69.1 °F 87% 30.05 in 10.0 mi SSW 9.2 mph 23.0 mph N/A   Overcast
4:35 AM 73.0 °F 69.1 °F 87% 30.05 in 9.0 mi SSW 10.4 mph - N/A   Overcast
4:52 AM 73.4 °F 69.8 °F 88% 30.05 in 10.0 mi SSW 8.1 mph - N/A   Overcast
4:54 AM 73.0 °F 69.1 °F 87% 30.05 in 10.0 mi South 10.4 mph - N/A   Overcast
5:54 AM 73.0 °F 68.0 °F 84% 30.05 in 10.0 mi SSW 15.0 mph 20.7 mph N/A   Mostly Cloudy
6:54 AM 73.0 °F 68.0 °F 84% 30.07 in 10.0 mi SSW 9.2 mph 19.6 mph N/A   Overcast
7:45 AM 72.0 °F 68.0 °F 87% 30.08 in 10.0 mi SSW 6.9 mph - N/A   Overcast
7:54 AM 72.0 °F 68.0 °F 87% 30.08 in 10.0 mi SSW 9.2 mph - N/A   Mostly Cloudy
8:21 AM 73.0 °F 68.0 °F 84% 30.09 in 10.0 mi SSW 9.2 mph - N/A   Mostly Cloudy
8:33 AM 73.0 °F 68.0 °F 84% 30.09 in 10.0 mi SSW 6.9 mph - N/A   Overcast
8:41 AM 73.0 °F 68.0 °F 84% 30.09 in 10.0 mi South 10.4 mph 17.3 mph N/A   Mostly Cloudy
8:54 AM 73.0 °F 68.0 °F 84% 30.09 in 10.0 mi South 10.4 mph - N/A   Mostly Cloudy
9:05 AM 73.9 °F 68.0 °F 82% 30.09 in 10.0 mi SSW 10.4 mph - N/A   Mostly Cloudy
9:54 AM 73.9 °F 68.0 °F 82% 30.09 in 10.0 mi SSW 6.9 mph 17.3 mph N/A   Overcast
10:20 AM 75.0 °F 66.9 °F 76% 30.09 in 10.0 mi SW 13.8 mph 21.9 mph N/A   Overcast
10:32 AM 75.0 °F 66.9 °F 76% 30.09 in 10.0 mi SW 11.5 mph - N/A   Overcast
10:52 AM 75.2 °F 66.2 °F 73% 30.09 in 10.0 mi SW 18.4 mph 27.6 mph N/A   Overcast
10:54 AM 75.0 °F 66.0 °F 73% 30.09 in 10.0 mi SW 15.0 mph 27.6 mph N/A   Overcast
11:54 AM 75.9 °F 66.0 °F 71% 30.06 in 10.0 mi SSW 11.5 mph 23.0 mph N/A   Mostly Cloudy
12:54 PM 75.9 °F 64.9 °F 69% 30.02 in 10.0 mi SSW 12.7 mph 19.6 mph N/A   Overcast
1:34 PM 71.1 °F 68.0 °F 90% 30.02 in 2.5 mi West 6.9 mph 20.7 mph 0.01 in Rain Light Rain
1:41 PM 71.1 °F 68.0 °F 90% 30.02 in 9.0 mi WNW 6.9 mph - 0.01 in   Mostly Cloudy
1:54 PM 71.1 °F 68.0 °F 90% 30.02 in 8.0 mi West 6.9 mph - 0.01 in   Mostly Cloudy
2:39 PM 71.1 °F 68.0 °F 90% 30.01 in 2.0 mi WSW 3.5 mph - 0.02 in Rain Light Rain
2:50 PM 71.6 °F 68.0 °F 88% 30.01 in 5.0 mi West 3.5 mph - 0.02 in Rain Light Rain
2:54 PM 71.1 °F 69.1 °F 93% 30.01 in 7.0 mi Calm Calm - 0.02 in   Mostly Cloudy
3:54 PM 71.1 °F 68.0 °F 90% 30.01 in 5.0 mi WSW 12.7 mph - 0.01 in Rain Light Rain
4:25 PM 70.0 °F 66.9 °F 90% 30.02 in 4.0 mi SW 11.5 mph - 0.00 in Rain Light Rain
4:28 PM 70.0 °F 66.9 °F 90% 30.02 in 1.8 mi WSW 13.8 mph - 0.04 in Rain Rain
4:31 PM 70.0 °F 66.9 °F 90% 30.03 in 1.0 mi West 11.5 mph - 0.05 in Rain Heavy Rain
4:36 PM 70.0 °F 66.9 °F 90% 30.03 in 1.2 mi West 12.7 mph - 0.05 in Rain Light Rain
4:39 PM 69.1 °F 66.9 °F 93% 30.03 in 4.0 mi West 11.5 mph - 0.05 in Rain Light Rain
4:46 PM 69.1 °F 66.0 °F 90% 30.03 in 1.8 mi West 12.7 mph - 0.08 in Rain Heavy Rain
4:50 PM 68.0 °F 66.2 °F 94% 30.03 in 1.0 mi West 11.5 mph - 0.09 in Rain Heavy Rain
4:54 PM 68.0 °F 66.0 °F 93% 30.03 in 1.2 mi West 9.2 mph - 0.11 in Rain Heavy Rain
5:06 PM 68.0 °F 66.0 °F 93% 30.03 in 0.8 mi West 10.4 mph - 0.16 in Rain Heavy Rain
5:13 PM 64.0 °F 63.0 °F 96% 30.04 in 1.0 mi WNW 17.3 mph 26.5 mph 0.23 in Rain Heavy Rain
5:18 PM 64.0 °F 62.1 °F 93% 30.05 in 1.8 mi WNW 15.0 mph 26.5 mph 0.25 in Rain Heavy Rain
5:22 PM 64.0 °F 62.1 °F 93% 30.06 in 3.0 mi WNW 17.3 mph - 0.26 in Rain Rain
5:54 PM 63.0 °F 60.1 °F 90% 30.06 in 10.0 mi NW 9.2 mph - 0.26 in   Overcast
6:54 PM 61.0 °F 60.1 °F 97% 30.08 in 8.0 mi WNW 5.8 mph - 0.00 in Rain Light Rain
7:22 PM 61.0 °F 60.1 °F 97% 30.09 in 4.0 mi North 11.5 mph 18.4 mph 0.02 in Rain Light Rain
7:39 PM 59.0 °F 57.0 °F 93% 30.09 in 6.0 mi North 8.1 mph - 0.03 in Rain Light Rain
7:46 PM 59.0 °F 57.0 °F 93% 30.09 in 10.0 mi North 6.9 mph - 0.03 in   Overcast
7:54 PM 59.0 °F 57.0 °F 93% 30.09 in 10.0 mi North 8.1 mph - 0.03 in   Overcast
8:05 PM 57.9 °F 57.0 °F 97% 30.10 in 10.0 mi North 6.9 mph - 0.00 in   Overcast
8:26 PM 57.9 °F 57.0 °F 97% 30.10 in 3.0 mi North 6.9 mph - 0.01 in Rain Light Rain
8:31 PM 57.9 °F 57.0 °F 97% 30.10 in 2.5 mi North 5.8 mph - 0.02 in Rain Rain
8:39 PM 57.9 °F 57.0 °F 97% 30.10 in 4.0 mi North 8.1 mph - 0.02 in Rain Light Rain
8:54 PM 57.9 °F 55.9 °F 93% 30.10 in 5.0 mi North 6.9 mph - 0.04 in Rain Light Rain
9:30 PM 57.0 °F 55.9 °F 96% 30.11 in 2.0 mi North 12.7 mph 16.1 mph 0.04 in Rain Light Rain
9:43 PM 55.0 °F 54.0 °F 96% 30.12 in 3.0 mi North 8.1 mph - 0.05 in Rain Light Rain
9:54 PM 55.0 °F 54.0 °F 96% 30.12 in 3.0 mi NNE 15.0 mph 19.6 mph 0.06 in Rain Light Rain
10:04 PM 53.1 °F 51.1 °F 93% 30.12 in 4.0 mi NNE 18.4 mph - 0.00 in Rain Light Rain
10:12 PM 53.1 °F 51.1 °F 93% 30.13 in 6.0 mi NNE 15.0 mph - 0.01 in Rain Light Rain
10:20 PM 52.0 °F 51.1 °F 97% 30.13 in 7.0 mi NNE 15.0 mph 21.9 mph 0.01 in Rain Light Rain
10:43 PM 52.0 °F 50.0 °F 93% 30.13 in 10.0 mi North 10.4 mph - 0.01 in   Overcast
10:54 PM 52.0 °F 50.0 °F 93% 30.12 in 10.0 mi North 6.9 mph - 0.01 in   Overcast
11:54 PM 52.0 °F 50.0 °F 93% 30.11 in 10.0 mi North 5.8 mph - N/A   Overcast